Regional Weather Roundup
Issued by NWS

Home | Current Version | Previous Version | Graphics & Text | Print | Product List | Glossary On
Versions: 1 2 3 4 5 6 7 8 9 10 11 12 13 14 15 16 17 18 19 20 21 22 23 24 25 26 27 28 29 30 31 32 33 34 35 36 37 38 39 40 41 42 43 44 45 46 47 48 49 50
000
ASUS43 KDMX 251208
RWRIA

WEATHER ROUNDUP FOR IOWA
NATIONAL WEATHER SERVICE DES MOINES IA
700 AM CDT SUN SEP 25 2016

NOTE: "FAIR" INDICATES FEW OR NO CLOUDS BELOW 12,000 FEET WITH NO
SIGNIFICANT WEATHER AND/OR OBSTRUCTIONS TO VISIBILITY.

* - THESE STATIONS ARE NOT NWS STATIONS...THUS NOT UNDER NWS
QUALITY CONTROL.  THEY ALSO DO NOT REPORT WEATHER SUCH
AS PRECIPITATION OR FOG.

IAZ001>003-012>014-020>022-031>034-043>046-251300-
   NORTHWEST IOWA

CITY           SKY/WX    TMP DP  RH WIND       PRES   REMARKS
CARROLL *      CLOUDY    59  55  88 NW9       30.02R
CHEROKEE *     PTCLDY    55  51  84 SW3       30.03R
DENISON *      CLOUDY    59  54  82 NW6       30.04R
LE MARS *      PTCLDY    54  48  82 SW5       30.04S
ORANGE CITY *  PTCLDY    52  46  82 W7        30.02S
SHELDON *      MOCLDY    52  50  93 W7        30.00R
SIOUX CITY     MOCLDY    55  48  77 W8        30.05R
6HR MIN TEMP:  55; 6HR MAX TEMP:  71; 6HR PCP: TRACE;

SPENCER        PTCLDY    57  51  80 W10       30.00R
6HR MIN TEMP:  57; 6HR MAX TEMP:  68; 6HR PCP:  0.19;

STORM LAKE *   CLOUDY    55  52  88 W9        30.03R
$$

IAZ055>058-069>071-079>083-090>094-251300-
   SOUTHWEST IOWA

CITY           SKY/WX    TMP DP  RH WIND       PRES   REMARKS
ATLANTIC *     CLOUDY    61  55  82 NW13G20   30.03R
AUDUBON *      CLOUDY    59  54  82 NW9       30.04R
CLARINDA *       N/A     64  63  94 MISG      30.05R
COUNCIL BLFS * CLOUDY    57  50  77 NW12      30.07R
CRESTON *      CLOUDY    68  66  94 W14G21    30.01S
HARLAN  *      CLOUDY    59  57  94 NW8       30.08R
LAMONI         CLOUDY    68  67  96 SW7       30.01S
6HR MIN TEMP:  68; 6HR MAX TEMP:  69; 6HR PCP:  0.52;

RED OAK *      CLOUDY    59  54  82 NW10G21   30.05R
SHENANDOAH *   CLOUDY    59  55  88 W7        30.07R
$$

IAZ047>049-059>061-072>074-084-251300-
   CENTRAL IOWA

CITY           SKY/WX    TMP DP  RH WIND       PRES   REMARKS
AMES           LGT RAIN  68  68 100 SW7       29.98R
6HR MIN TEMP:  67; 6HR MAX TEMP:  69; 6HR PCP:  0.12;

ANKENY *         N/A    N/A N/A N/A MISG        N/A
BOONE *        CLOUDY    68  68 100 SW8G15    29.97S
CHARITON *       N/A     68  66  94 SW7       30.00F
DES MOINES     CLOUDY    69  67  93 S6        29.97S
6HR MIN TEMP:  69; 6HR MAX TEMP:  71; 6HR PCP:  0.16;

GRINNELL*      MOCLDY    67  66  94 SW5       29.99R
KNOXVILLE *    CLOUDY    70  66  88 SW9       29.98S
MARSHALLTOWN   CLOUDY    68  68 100 S7        29.97R
6HR MIN TEMP:  68; 6HR MAX TEMP:  69; 6HR PCP:  0.25;

NEWTON *       CLOUDY    68  68 100 SW5       29.98S
PELLA *        CLOUDY    68  67  95 SW6       30.00S
PERRY *        LGT RAIN  68  68 100 W9        29.99S
$$

IAZ004>006-015-016-023>025-035-036-251300-
   NORTH CENTRAL IOWA

CITY           SKY/WX    TMP DP  RH WIND       PRES   REMARKS
ALGONA *       CLOUDY    63  61  94 SW9       29.97R
CLARION *      CLOUDY    68  68 100 SW12      29.96R
ESTHERVILLE    CLOUDY    57  55  93 W8        29.97R
6HR MIN TEMP:  57; 6HR MAX TEMP:  66; 6HR PCP:  0.18;

FORT DODGE *   CLOUDY    64  63  94 W12       29.99R
MASON CITY     LGT RAIN  68  66  93 S10       29.96S
6HR MIN TEMP:  66; 6HR MAX TEMP:  68; 6HR PCP:  0.06;

FOREST CITY *  HVY RAIN  66  66 100 W20       29.95R
WEBSTER CITY * CLOUDY    68  68 100 SW13      29.96R FOG
IOWA FALLS *   MOCLDY    68  67  95 SW7       29.98R
$$

IAZ007>011-017>019-026>030-037>042-050>054-066-251300-
   NORTHEAST IOWA

CITY           SKY/WX    TMP DP  RH WIND       PRES   REMARKS
CEDAR RAPIDS   PTCLDY    67  67 100 SE6       29.97F FOG
6HR MIN TEMP:  66; 6HR MAX TEMP:  70;

CHARLES CITY * CLOUDY    68  68 100 S7        29.97R FOG
CLINTON *      CLOUDY    67  66  97 SE10      30.01F FOG
DECORAH *      CLOUDY    66  66 100 S8        29.95S FOG
DUBUQUE        CLOUDY    66  64  93 S8        30.00F FOG
6HR MIN TEMP:  65; 6HR MAX TEMP:  66;

MONTICELLO *   CLOUDY    66  64  94 SE7       29.99R FOG
OELWEIN *      CLOUDY    66  66 100 S8        29.97S FOG
WATERLOO       CLOUDY    68  67  96 S6        29.95R FOG
6HR MIN TEMP:  68; 6HR MAX TEMP:  70; 6HR PCP:  0.30;

$$

IAZ064-065-067-068-078-251300-
   EAST CENTRAL IOWA

CITY           SKY/WX    TMP DP  RH WIND       PRES   REMARKS
DAVENPORT      PTCLDY    68  65  90 SE9       30.00F
6HR MIN TEMP:  66; 6HR MAX TEMP:  68;

IOWA CITY      PTCLDY    67  65  93 SE3       29.99S
6HR MIN TEMP:  67; 6HR MAX TEMP:  71;

MT. PLEASANT * PTCLDY    71  70  96 SE6       29.99F
MUSCATINE *    CLOUDY    66  64  94 CALM      30.00R FOG
QUAD CITIES    CLOUDY    69  65  86 SE6       30.00F FOG
6HR MIN TEMP:  66; 6HR MAX TEMP:  70;

$$

IAZ062-063-075>077-085>089-095>099-251300-
   SOUTHEAST IOWA

CITY           SKY/WX    TMP DP  RH WIND       PRES   REMARKS
BURLINGTON     MOCLDY    71  68  90 S8        30.00S
6HR MIN TEMP:  67; 6HR MAX TEMP:  72;

FAIRFIELD *    PTCLDY    70  64  83 S6        29.98S HAZE
FORT MADISON * CLOUDY    70  66  88 S6        30.01S
KEOKUK *       CLOUDY    72  68  88 SW8       30.00S
OSKALOOSA *      N/A     65  64  97 S3        29.99R
CENTERVILLE *    N/A     66  66 100 CALM      30.02R
OTTUMWA        CLEAR     66  64  93 S5        29.98R
6HR MIN TEMP:  66; 6HR MAX TEMP:  76;

WASHINGTON *     N/A    N/A N/A N/A MISG        N/A
$$

ABBREVIATIONS USED IN REMARKS
   TC - TEMPERATURES IN CELSIUS
  WCI - WIND CHILL INDEX
   HX - HEAT INDEX
  VSB - VISIBILITY
$$





USA.gov is the U.S. government's official web portal to all federal, state and local government web resources and services.